Regional Weather Roundup
Issued by NWS San Angelo, TX

Home | Current Version | Previous Version | Text Only | Print | Product List | Glossary On
Versions: 1 2 3 4 5 6 7 8 9 10 11 12 13 14 15 16 17 18 19 20 21 22 23 24 25 26 27 28 29 30 31 32 33 34 35 36 37 38 39 40 41 42 43 44 45 46 47 48 49 50
169
ASUS44 KSJT 191410
RWRSJT
WEST CENTRAL TEXAS REGIONAL WEATHER ROUNDUP
NATIONAL WEATHER SERVICE SAN ANGELO TX
900 AM CDT TUE SEP 19 2017

NOTE: "FAIR" INDICATES FEW OR NO CLOUDS BELOW 12,000 FEET WITH NO
SIGNIFICANT WEATHER AND/OR OBSTRUCTIONS TO VISIBILITY.

TXZ049-054-064>066-071>073-076>078-098-099-113-114-127-128-139-140-
154-155-168>170-191500
...LOCATIONS ACROSS WEST CENTRAL TEXAS...

CITY           SKY/WX    TMP DP  RH WIND       PRES   REMARKS
SAN ANGELO     CLOUDY    77  68  73 S10       29.95R
ABILENE        MOSUNNY   78  71  79 S15       29.94R
DYESS AFB      MOSUNNY   80  71  71 S17       29.92R
JUNCTION       SUNNY     78  70  76 S6        29.98R HAZE
SWEETWATER     CLOUDY    78  68  72 S18G25    29.96R
BROWNWOOD      MOSUNNY   77  70  78 S8        29.96R
COLEMAN        MOSUNNY   78  69  74 S12       29.96R
SONORA         MOSUNNY   77  70  78 S10       30.02S
OZONA          FAIR      75  68  78 S9        30.00S
BRADY          NOT AVBL
$$

TEXAS PANHANDLE/OKLAHOMA PANHANDLE

CITY           SKY/WX    TMP DP  RH WIND       PRES   REMARKS
AMARILLO       SUNNY     65  60  84 SW20      29.90S
BORGER         SUNNY     73  61  65 SW8G16    29.85S
CANADIAN       SUNNY     71  65  79 SE3       29.84S
DALHART        SUNNY     59  54  83 SW7       29.89S
DUMAS          SUNNY     65  57  74 SW14      29.87S
GUYMON         NOT AVBL
HEREFORD       SUNNY     69  56  62 SW12G17   29.94S
PAMPA          SUNNY     74  62  65 SW18G28   29.87S
PERRYTON       SUNNY     71  64  79 S12       29.81F
$$

SOUTHERN PANHANDLE/SOUTH PLAINS/ROLLING PLAINS

CITY           SKY/WX    TMP DP  RH WIND       PRES   REMARKS
LUBBOCK        MOSUNNY   76  61  59 SW16G24   29.94R
SNYDER         CLOUDY    75  67  76 S15       29.93F
CHILDRESS      SUNNY     73  64  73 S12       29.86R
SEMINOLE       SUNNY     73  58  60 SW9       29.99S
$$

PERMIAN BASIN

CITY           SKY/WX    TMP DP  RH WIND       PRES   REMARKS
MIDLAND        CLOUDY    79  63  57 S13       29.96R
ODESSA         SUNNY     77  64  64 S16       29.98R
WINK           SUNNY     75  62  64 SE7       29.96R
$$

FAR WEST/SOUTHWEST MOUNTAINS/TRANS PECOS

CITY           SKY/WX    TMP DP  RH WIND       PRES   REMARKS
ALPINE         CLOUDY    73  53  49 SW10      30.15R
DRYDEN           N/A     78  69  73 E7        29.95R
EL PASO        MOSUNNY   76  55  48 S8        30.04R
FORT STOCKTON  SUNNY     74  63  68 S8        29.99R
GUADALUPE PASS SUNNY     71  48  43 W8        30.15R
MARFA          NOT AVBL
PECOS          CLOUDY    73  65  75 CALM      29.95S
$$

DALLAS/FORT WORTH METROPLEX

CITY           SKY/WX    TMP DP  RH WIND       PRES   REMARKS
DFW AIRPORT    PTSUNNY   79  73  82 S16       29.91S
FTW MEACHAM    MOSUNNY   79  75  87 S10       29.92R
DAL-EXECUTIVE  CLOUDY    78  73  84 S8        29.93R
GRAND PRAIRIE  CLOUDY    77  72  83 S9G16     29.94R
ADDISON        CLOUDY    79  72  78 S7G16     29.94R
MESQUITE       CLOUDY    77  73  88 S12       29.94S
LANCASTER      CLOUDY    77  72  84 S10       29.95S
$$

NORTH CENTRAL TEXAS

CITY           SKY/WX    TMP DP  RH WIND       PRES   REMARKS
SHRMAN/DENISON PTSUNNY   75  73  91 S10       29.95R
GAINESVILLE    PTSUNNY   76  73  87 S10       29.94R
BRIDGEPORT     PTSUNNY   78  72  81 S8        29.93R
DENTON         MOSUNNY   77  74  90 S13       29.92R
WAXAHACHIE     CLOUDY    77  74  92 S9        29.95S
GRANBURY       CLOUDY    77  73  87 SE10      29.94R
$$

WESTERN NORTH TEXAS

CITY           SKY/WX    TMP DP  RH WIND       PRES   REMARKS
WICHITA FALLS  MOSUNNY   78  71  79 S13       29.88R
VERNON         SUNNY     76  65  68 S10       29.86S
BRECKENRIDGE   SUNNY     80  69  68 SW10G20   29.92R
COMANCHE       SUNNY     79  72  79 S12G17    29.95R
$$

CENTRAL AND SOUTH CENTRAL TEXAS

CITY           SKY/WX    TMP DP  RH WIND       PRES   REMARKS
AUSTIN/BERGSTM CLOUDY    80  77  90 S8        29.96R
WACO           PTSUNNY   79  75  87 S15       29.94S
HILLSBORO      CLOUDY    79  74  84 S13G18    29.95R
TEMPLE         PTSUNNY   79  75  87 S15       29.96R
KILLEEN-GRAY   SUNNY     79  75  89 S13       29.96R
FORT HOOD      PTSUNNY   75  72  88 S10       29.93R
GEORGETOWN     CLOUDY    79  74  84 S12       29.98R
LAGO VISTA     CLOUDY    77  74  91 S6        29.99R
SAN MARCOS     PTSUNNY   78  77  96 S8        29.98R FOG
NEW BRAUNFELS  PTSUNNY   80  76  87 S10       29.96R
RANDOLPH AFB   PTSUNNY   79  79 100 S9        29.97R FOG
SAN ANTONIO    PTSUNNY   80  73  79 S12       29.97R
STINSON        PTSUNNY   82  76  81 SE8       29.95R
PLEASANTON     NOT AVBL
LA GRANGE      CLOUDY    81  79  93 S6        29.95R
GIDDINGS       PTSUNNY   77  74  90 S8        29.98R FOG
$$

EAST TEXAS

CITY           SKY/WX    TMP DP  RH WIND       PRES   REMARKS
PARIS          CLOUDY    74  73  97 S8        29.96S FOG
CLARKSVILLE    NOT AVBL
TYLER          PTSUNNY   77  74  90 SW10      29.96S
LONGVIEW       CLOUDY    77  75  93 S9        29.96S
PALESTINE      CLOUDY    76  75  99 S8        29.98S
NACOGDOCHES    CLOUDY    77  76  96 S5        29.99R
$$

TEXAS HILL COUNTRY AND EDWARDS PLATEAU

CITY           SKY/WX    TMP DP  RH WIND       PRES   REMARKS
LLANO          SUNNY     79  72  78 CALM      30.00R
HORSESHOE BAY  PTSUNNY   78  72  82 CALM      29.97R
KERRVILLE      CLOUDY    76  73  89 S8        30.00R
FREDERICKSBRG  CLOUDY    75  69  79 SW7       30.00R
ROCKSPRINGS    NOT AVBL
HONDO          CLOUDY    80  74  81 SE10      29.97R
UVALDE         PTSUNNY   77  73  87 SE8       29.96R
DEL RIO        MOSUNNY   79  72  79 E12       29.92R
$$

SOUTHEAST TEXAS

CITY           SKY/WX    TMP DP  RH WIND       PRES   REMARKS
COLLEGE STN    CLOUDY    79  77  94 S9        29.97R
CALDWELL       CLOUDY    79  77  93 S8        29.97S FOG
CROCKETT       CLOUDY    77  75  94 S6        30.01R FOG
BRENHAM        CLOUDY    79  78  98 S6        29.97S
HUNTSVILLE     MOSUNNY   79  74  84 S9        29.97S
CONROE         CLOUDY    77  76  96 SE5       29.98R FOG
HOUSTON BUSH   MOSUNNY   81  78  91 S5        29.97R
HOUSTON HOBBY  MOSUNNY   83  76  79 S5        29.96R
PERLAND        SUNNY     84  76  76 S6        29.98R
WHARTON        MOSUNNY   81  77  88 S6        29.97S
$$

THE UPPER TEXAS COAST

CITY           SKY/WX    TMP DP  RH WIND       PRES   REMARKS
ORANGE         SUNNY     82  79  91 S7        30.00R
PORT ARTHUR    MOSUNNY   81  77  88 S3        29.98R
GALVESTON      MOSUNNY   86  78  77 S10       29.98R
ANGLETON       SUNNY     83  78  85 S9        29.96S
BAY CITY       MOSUNNY   81  79  92 S5        29.96S
$$

TEXAS COASTAL BEND, RIO GRANDE PLAINS DEEP SOUTH TEXAS

CITY           SKY/WX    TMP DP  RH WIND       PRES   REMARKS
VICTORIA       MOSUNNY   81  77  88 SE10      29.96R
BEEVILLE       FAIR      75  75 100 SE3       29.95S FOG
ROCKPORT       SUNNY     85  76  74 S10       29.94R
PORT ARANSAS   NOT AVBL
PORT LAVACA    SUNNY     82  76  84 S8        29.96R
CORPUS CHRISTI MOSUNNY   82  79  90 S12       29.94R
KINGSVILLE NAS PTSUNNY   81  80  97 SE6       29.94R
COTULLA        MOSUNNY   80  73  79 SE9       29.93R
LAREDO         MOSUNNY   83  74  74 SE20      29.92R
BROWNSVILLE    SUNNY     82  80  94 SE9       29.93R
PORT ISABEL    SUNNY     86  78  77 S13       29.92R
HEBBRONVILLE   NOT AVBL
MCALLEN        SUNNY     83  77  82 SE13      29.92R
WESLACO        MOSUNNY   83  77  82 S8        29.92R
FALFURRIAS     MOSUNNY  -38  32 100 SE8       29.93R WCI -60
EDINBURG       MOSUNNY   83  77  81 SE6       29.93R
$$




USA.gov is the U.S. government's official web portal to all federal, state and local government web resources and services.